Location: Newark
(44.6768°N, 22.5302°E)
Time: 14:48:41
(UTC+00:00)

UKube-1 - Pass Details

Date: 07 July 2022
Orbit: 608 x 615 km, 98.4° (Epoch: 18 August)

Event Time Altitude Azimuth Distance (km) Brightness Sun altitude
Rises 20:23:59 0° 16° (NNE) 2,892 ? -16.5°
Reaches altitude 10° 20:26:12 10° 19° (NNE) 1,981 ? -16.7°
Maximum altitude 20:30:29 67° 102° (ESE) 665 ? -17.1°
Enters shadow 20:32:25 31° 177° (S) 1,070 ? -17.2°
